DW9227 Weather Reports


Display with metric or nautical units.
time (UTC)temp
F
wind
direction
speed
MPH
gust
MPH
rain 1hr
in
rain 24hr
in
rain mn
in
humidity
%
barometer
mb
20260510170032 59 98 0.0 4.0 0.00 0.39 0.39 83 1012.3
20260510164531 59 87 0.0 4.0 0.00 0.39 0.39 83 1012.4
20260510163031 59 109 0.0 1.0 0.00 0.39 0.39 83 1012.6
20260510161531 60 110 0.0 7.0 0.00 0.39 0.39 83 1012.6
20260510160034 60 88 0.0 8.0 0.00 0.39 0.39 82 1012.6
20260510154529 60 138 0.0 9.0 0.00 0.39 0.39 83 1012.8
20260510153026 60 138 0.0 4.0 0.00 0.39 0.39 83 1012.9
20260510151526 60 107 1.0 8.0 0.00 0.39 0.39 84 1013.1
20260510150020 59 69 0.0 5.0 0.00 0.39 0.39 85 1013.2
20260510144523 59 78 0.0 3.0 0.00 0.39 0.39 86 1013.4
20260510143017 59 77 0.0 5.0 0.00 0.39 0.39 87 1013.5
20260510141517 59 115 0.0 9.0 0.00 0.39 0.39 88 1013.5
20260510140015 58 127 0.0 8.0 0.00 0.39 0.39 87 1013.6
20260510134515 58 107 0.0 4.0 0.00 0.39 0.39 86 1013.6
20260510133014 59 121 0.0 8.0 0.00 0.39 0.39 86 1013.7
20260510131513 59 94 0.0 4.0 0.00 0.39 0.39 86 1013.7
20260510130013 59 94 0.0 3.0 0.00 0.39 0.39 87 1013.7
20260510124512 59 104 0.0 1.0 0.00 0.39 0.39 88 1013.7
20260510123011 59 105 0.0 2.0 0.00 0.39 0.39 89 1013.9
20260510121511 58 105 0.0 1.0 0.01 0.39 0.39 90 1014.1
20260510120010 59 108 0.0 7.0 0.02 0.39 0.39 91 1014.0
20260510114516 59 98 0.0 4.0 0.02 0.39 0.39 92 1014.1
20260510113008 59 98 0.0 7.0 0.03 0.39 0.39 93 1014.3
20260510111508 58 96 0.0 0.0 0.04 0.39 0.39 93 1014.5
20260510110012 58 96 0.0 0.0 0.04 0.38 0.38 92 1014.5
20260510104506 58 96 0.0 0.0 0.05 0.37 0.37 93 1014.5
20260510103006 58 96 0.0 0.0 0.06 0.36 0.36 94 1014.8
20260510101510 57 96 0.0 0.0 0.06 0.35 0.35 94 1014.8
20260510100005 57 96 0.0 0.0 0.06 0.34 0.34 94 1014.9
20260510094507 57 96 0.0 0.0 0.06 0.32 0.32 94 1015.0
20260510093005 57 96 0.0 0.0 0.06 0.31 0.31 94 1015.1
20260510091503 56 96 0.0 0.0 0.06 0.28 0.28 94 1015.1
20260510090003 57 96 0.0 0.0 0.06 0.28 0.28 94 1015.2
20260510084502 57 96 0.0 0.0 0.06 0.26 0.26 94 1015.3
20260510083101 57 96 0.0 0.0 0.06 0.24 0.24 94 1015.3
20260510081600 57 96 0.0 0.0 0.06 0.23 0.23 94 1015.3
20260510074606 57 96 0.0 0.0 0.07 0.20 0.20 94 1015.1
20260510073059 57 96 0.0 0.0 0.06 0.18 0.18 94 1014.9
20260510071603 57 96 0.0 0.0 0.06 0.17 0.17 94 1015.0
20260510070109 57 96 0.0 0.0 0.06 0.15 0.15 93 1014.9
20260510064601 57 96 0.0 0.0 0.06 0.13 0.13 93 1015.0
20260510063100 57 96 0.0 0.0 0.06 0.12 0.12 93 1015.0
20260510061554 57 96 0.0 0.0 0.06 0.10 0.10 92 1015.0
20260510060054 57 96 0.0 0.0 0.06 0.09 0.09 92 1015.0
20260510054600 57 96 0.0 0.0 0.06 0.07 0.07 91 1015.0
20260510053053 57 96 0.0 0.0 0.04 0.06 0.06 90 1015.1
20260510051551 57 96 0.0 0.0 0.03 0.04 0.04 89 1015.2
20260510050049 57 96 0.0 0.0 0.02 0.02 0.02 88 1015.2
20260510044557 57 96 0.0 2.0 0.02 0.02 0.02 86 1015.1
20260510043048 58 96 0.0 4.0 0.01 0.01 0.01 85 1015.0
20260510041553 58 96 0.0 0.0 0.01 0.01 0.01 82 1014.2
20260510040045 59 96 0.0 0.0 0.00 0.00 0.00 78 1014.2
20260510034542 59 96 0.0 0.0 0.00 0.00 0.00 76 1014.2
20260510033053 59 96 0.0 0.0 0.00 0.00 0.00 74 1014.2
20260510031541 58 96 0.0 0.0 0.00 0.00 0.00 78 1013.7
20260510030038 58 96 0.0 0.0 0.00 0.00 0.00 80 1013.7
20260510024539 58 96 0.0 0.0 0.00 0.00 0.00 79 1013.9
20260510023035 58 96 0.0 0.0 0.00 0.00 0.00 79 1014.1
20260510021538 58 96 0.0 0.0 0.00 0.00 0.00 79 1014.2
20260510020033 58 96 0.0 0.0 0.00 0.00 0.00 79 1014.4
20260510014533 57 96 0.0 0.0 0.00 0.00 0.00 81 1014.7
20260510013036 57 96 0.0 0.0 0.00 0.00 0.00 81 1014.8
20260510011527 57 96 0.0 0.0 0.00 0.00 0.00 81 1015.0
20260510010025 57 96 0.0 0.0 0.00 0.00 0.00 82 1015.1
20260510004524 57 96 0.0 0.0 0.00 0.00 0.00 82 1015.1
20260510003023 57 96 0.0 0.0 0.00 0.00 0.00 81 1015.3
20260510001533 57 96 0.0 0.0 0.00 0.00 0.00 82 1015.6
20260510000019 57 96 0.0 0.0 0.00 0.00 0.00 82 1015.8
20260509234517 57 96 0.0 0.0 0.00 0.00 0.00 81 1015.8
20260509233018 57 96 0.0 0.0 0.00 0.00 0.00 81 1016.0
20260509231516 57 96 0.0 0.0 0.00 0.00 0.00 81 1015.9
20260509230014 57 96 0.0 0.0 0.00 0.00 0.00 80 1015.9
20260509224514 57 96 0.0 0.0 0.00 0.00 0.00 80 1015.9
20260509223013 58 96 0.0 0.0 0.00 0.00 0.00 79 1015.9
20260509221510 59 96 0.0 0.0 0.00 0.00 0.00 78 1016.0
20260509220006 59 96 0.0 0.0 0.00 0.00 0.00 76 1016.0
20260509214506 60 96 0.0 0.0 0.00 0.00 0.00 75 1015.9
20260509213006 61 96 0.0 0.0 0.00 0.00 0.00 73 1016.0
20260509211505 61 96 0.0 0.0 0.00 0.00 0.00 70 1016.0
20260509210004 61 96 0.0 0.0 0.00 0.00 0.00 71 1016.1
20260509204505 62 96 0.0 0.0 0.00 0.00 0.00 70 1016.0
20260509203006 63 96 0.0 0.0 0.00 0.00 0.00 69 1016.0
20260509201503 63 96 0.0 0.0 0.00 0.00 0.00 69 1015.8
20260509200002 63 96 0.0 0.0 0.00 0.00 0.00 69 1015.6
20260509194501 64 96 0.0 0.0 0.00 0.00 0.00 67 1015.3
20260509193001 64 96 0.0 0.0 0.00 0.00 0.00 67 1015.2
20260509191501 65 96 0.0 0.0 0.00 0.00 0.00 66 1014.9
20260509190106 66 96 0.0 0.0 0.00 0.00 0.00 64 1014.7
20260509184559 67 96 0.0 0.0 0.00 0.00 0.00 62 1014.6
20260509183100 68 96 0.0 0.0 0.00 0.00 0.00 60 1014.6
20260509181605 69 96 0.0 0.0 0.00 0.00 0.00 56 1014.7
20260509180100 70 96 0.0 0.0 0.00 0.00 0.00 54 1014.6
20260509174605 70 96 0.0 0.0 0.00 0.00 0.00 55 1014.6
20260509173114 71 96 0.0 0.0 0.00 0.00 0.00 54 1014.4
20260509171604 71 96 0.0 3.0 0.00 0.00 0.00 54 1014.3